1486260001.23,26270,9.63,72222.3,-6.33,-7.43,-7.43,0,*57
1486260002.47,26271,9.63,72222.8,-6.31,-7.35,-7.35,0,*54
1486260003.74,26272,9.56,72212.5,-6.33,-7.43,-7.39,0,*58
1486260004.96,26273,9.63,72216.0,-6.33,-7.53,-7.49,0,*5F
1486260006.15,26274,9.56,72212.8,-6.31,-7.49,-7.49,0,*51
1486260007.42,26275,9.63,72218.5,-6.33,-7.43,-7.39,0,*5F
1486260008.69,26276,9.56,72222.5,-6.33,-7.43,-7.39,0,*5C
1486260009.96,26277,9.63,72220.8,-6.33,-7.31,-7.39,0,*58
1486260011.22,26278,9.56,72222.5,-6.33,-7.39,-7.39,0,*5F
1486260012.47,26279,9.56,72220.3,-6.31,-7.35,-7.35,0,*5C
1486260013.71,26280,9.56,72224.8,-6.31,-7.27,-7.35,0,*59
1486260014.95,26281,9.56,72224.5,-6.31,-7.27,-7.27,0,*5B
1486260016.22,26282,9.56,72226.3,-6.33,-7.39,-7.31,0,*52
1486260017.46,26283,9.63,72226.3,-6.31,-7.27,-7.27,0,*59
1486260018.73,26284,9.56,72224.5,-6.33,-7.31,-7.31,0,*5C
1486260019.97,26285,9.56,72230.3,-6.31,-7.27,-7.27,0,*5F
1486260021.24,26286,9.56,72230.0,-6.33,-7.31,-7.27,0,*59
1486260022.5,26287,9.56,72226.8,-6.33,-7.27,-7.31,0,*58
1486260023.7,26288,9.56,72224.8,-6.31,-7.11,-7.15,0,*56
1486260024.97,26289,9.63,72228.5,-6.33,-7.39,-7.43,0,*5C
1486260026.22,26290,9.63,72230.0,-6.31,-7.35,-7.39,0,*57
1486260027.46,26291,9.63,72228.8,-6.31,-7.35,-7.39,0,*56
1486260028.7,26292,9.63,72224.5,-6.31,-7.35,-7.35,0,*59
1486260029.94,26293,9.56,72224.3,-6.31,-7.39,-7.39,0,*58
1486260031.21,26294,9.63,72224.3,-6.33,-7.43,-7.27,0,*5F
1486260032.48,26295,9.56,72216.3,-6.33,-7.31,-7.27,0,*5B
1486260033.73,26296,9.63,72220.5,-6.31,-7.35,-7.35,0,*5D
1486260034.97,26297,9.63,72220.5,-6.31,-7.35,-7.35,0,*5C
1486260036.22,26298,9.56,72220.0,-6.31,-7.35,-7.35,0,*53
1486260037.46,26299,9.56,72220.8,-6.31,-7.35,-7.39,0,*5E
1486260038.7,26300,9.56,72222.8,-6.31,-7.27,-7.39,0,*5C
1486260039.94,26301,9.63,72220.0,-6.31,-7.35,-7.39,0,*5E
1486260041.19,26302,9.56,72222.0,-6.31,-7.35,-7.39,0,*5D
1486260042.42,26303,9.63,72222.3,-6.31,-7.39,-7.35,0,*5C
1486260043.67,26304,9.56,72222.8,-6.31,-7.35,-7.39,0,*5B
1486260044.94,26305,9.56,72222.0,-6.33,-7.43,-7.43,0,*54
1486260046.22,26306,9.56,72220.3,-6.33,-7.43,-7.43,0,*57
1486260047.46,26307,9.63,72222.8,-6.31,-7.27,-7.27,0,*54
1486260048.73,26308,9.63,72222.3,-6.33,-7.39,-7.27,0,*56
1486260049.99,26309,9.63,72220.5,-6.29,-7.35,-7.35,0,*53
1486260051.24,26310,9.63,72220.3,-6.31,-7.35,-7.39,0,*5E
1486260052.43,26311,9.63,72220.5,-6.31,-7.49,-7.49,0,*53
1486260053.62,26312,9.56,72218.3,-6.31,-7.49,-7.49,0,*50
1486260054.86,26313,9.56,72216.8,-6.31,-7.27,-7.39,0,*5E
1486260056.05,26314,9.63,72222.3,-6.31,-7.53,-7.49,0,*5D
1486260057.24,26315,9.56,72220.0,-6.31,-7.53,-7.53,0,*57
1486260058.51,26316,9.56,72218.0,-6.33,-7.57,-7.57,0,*56
1486260059.73,26317,9.63,72220.5,-6.31,-7.61,-7.53,0,*54
1486260061.01,26318,9.63,72218.8,-6.33,-7.57,-7.65,0,*59
1486260062.28,26319,9.63,72222.0,-6.33,-7.65,-7.57,0,*58
1486260063.53,26320,9.56,72218.8,-6.31,-7.61,-7.61,0,*51
1486260064.72,26321,9.56,72216.8,-6.31,-7.53,-7.53,0,*50
1486260065.99,26322,9.63,72218.5,-6.33,-7.57,-7.57,0,*51
1486260067.27,26323,9.63,72222.8,-6.33,-7.57,-7.57,0,*50
1486260068.49,26324,9.63,72220.5,-6.31,-7.61,-7.53,0,*54
1486260069.73,26325,9.63,72218.3,-6.33,-7.53,-7.57,0,*52
1486260070.95,26326,9.56,72218.8,-6.31,-7.57,-7.53,0,*53
1486260072.22,26327,9.56,72216.0,-6.33,-7.65,-7.57,0,*55
1486260073.5,26328,9.63,72222.8,-6.33,-7.57,-7.57,0,*5B
1486260074.69,26329,9.56,72216.3,-6.31,-7.53,-7.53,0,*58
1486260075.91,26330,9.63,72220.0,-6.33,-7.49,-7.49,0,*52
1486260077.12,26331,9.56,72216.8,-6.33,-7.53,-7.53,0,*53
1486260078.31,26332,9.63,72218.0,-6.35,-7.53,-7.53,0,*56
1486260079.55,26333,9.63,72216.5,-6.33,-7.43,-7.53,0,*50
1486260080.83,26334,9.56,72216.8,-6.33,-7.43,-7.43,0,*56
1486260082.1,26335,9.56,72216.8,-6.33,-7.39,-7.43,0,*5A
1486260083.31,26336,9.63,72222.8,-6.33,-7.53,-7.53,0,*54
1486260084.55,26337,9.56,72218.0,-6.33,-7.43,-7.53,0,*54
1486260085.77,26338,9.56,72216.8,-6.33,-7.53,-7.53,0,*5A
1486260086.99,26339,9.56,72222.0,-6.35,-7.53,-7.43,0,*5C
1486260088.25,26340,9.56,72220.0,-6.35,-7.43,-7.43,0,*53
1486260089.49,26341,9.63,72224.8,-6.35,-7.31,-7.31,0,*52
1486260090.76,26342,9.56,72220.5,-6.33,-7.39,-7.31,0,*5F
1486260092.0,26343,9.56,72222.5,-6.33,-7.53,-7.43,0,*57
1486260093.25,26344,9.56,72218.5,-6.33,-7.53,-7.43,0,*50
1486260094.49,26345,9.56,72216.0,-6.33,-7.43,-7.53,0,*51
1486260095.74,26346,9.63,72216.5,-6.33,-7.43,-7.53,0,*52
1486260097.0,26347,9.63,72212.0,-6.33,-7.31,-7.31,0,*52
1486260098.25,26348,9.56,72214.0,-6.35,-7.27,-7.27,0,*5B
1486260099.49,26349,9.63,72216.0,-6.35,-7.27,-7.27,0,*5A
1486260100.76,26350,9.63,72216.5,-6.33,-7.39,-7.31,0,*5C
1486260102.0,26351,9.56,72216.0,-6.31,-7.31,-7.31,0,*57
1486260103.27,26352,9.63,72218.3,-6.33,-7.27,-7.31,0,*51
1486260104.54,26353,9.63,72216.0,-6.33,-7.31,-7.31,0,*57
1486260105.8,26354,9.63,72212.0,-6.33,-7.31,-7.39,0,*58
1486260107.07,26355,9.56,72210.5,-6.33,-7.39,-7.39,0,*51
1486260108.33,26356,9.56,72210.3,-6.33,-7.39,-7.39,0,*52
1486260109.57,26357,9.63,72212.0,-6.33,-7.43,-7.53,0,*52
1486260110.76,26358,9.63,72210.8,-6.31,-7.49,-7.49,0,*5E
1486260112.01,26359,9.56,72206.8,-6.33,-7.53,-7.65,0,*58
1486260113.2,26360,9.56,72208.3,-6.31,-7.53,-7.53,0,*55
1486260114.41,26361,9.63,72216.3,-6.31,-7.49,-7.39,0,*53
1486260115.65,26362,9.63,72216.0,-6.31,-7.39,-7.39,0,*57
1486260116.91,26363,9.63,72218.3,-6.33,-7.39,-7.39,0,*54
1486260118.11,26364,9.56,72214.0,-6.35,-7.53,-7.53,0,*55
1486260119.33,26365,9.63,72214.3,-6.35,-7.53,-7.39,0,*58
1486260120.52,26366,9.63,72214.5,-6.35,-7.53,-7.53,0,*57
1486260121.77,26367,9.56,72214.5,-6.35,-7.43,-7.43,0,*56
1486260123.02,26368,9.63,72222.0,-6.35,-7.43,-7.43,0,*59
1486260124.26,26369,9.56,72220.8,-6.37,-7.49,-7.43,0,*50
1486260125.49,26370,9.63,72222.8,-6.35,-7.53,-7.43,0,*51
1486260126.71,26371,9.56,72212.8,-6.35,-7.57,-7.53,0,*55
1486260127.96,26372,9.63,72210.0,-6.31,-7.61,-7.61,0,*56
1486260129.24,26373,9.56,72206.3,-6.33,-7.57,-7.57,0,*55
1486260130.51,26374,9.63,72208.0,-6.33,-7.65,-7.69,0,*5E
1486260131.7,26375,9.56,72208.5,-6.31,-7.53,-7.53,0,*51
1486260132.95,26376,9.56,72204.0,-6.35,-7.57,-7.57,0,*56
1486260134.17,26377,9.56,72208.0,-6.35,-7.53,-7.57,0,*53
1486260135.4,26378,9.56,72206.3,-6.35,-7.53,-7.43,0,*59
1486260136.67,26379,9.63,72204.8,-6.37,-7.61,-7.57,0,*5E
1486260137.92,26380,9.63,72204.5,-6.35,-7.57,-7.65,0,*5E
1486260139.19,26381,9.56,72206.8,-6.37,-7.69,-7.61,0,*54
1486260140.44,26382,9.56,72204.0,-6.35,-7.61,-7.65,0,*59
1486260141.69,26383,9.63,72208.3,-6.35,-7.57,-7.57,0,*5C
1486260142.94,26384,9.56,72208.3,-6.35,-7.31,-7.31,0,*5B
1486260144.16,26385,9.56,72208.3,-6.35,-7.43,-7.53,0,*5B
1486260145.41,26386,9.63,72208.8,-6.35,-7.61,-7.57,0,*5C
1486260146.66,26387,9.56,72210.5,-6.35,-7.43,-7.39,0,*55
1486260147.85,26388,9.56,72212.0,-6.35,-7.53,-7.53,0,*57
1486260149.04,26389,9.63,72218.8,-6.35,-7.53,-7.53,0,*56
1486260150.26,26390,9.63,72208.8,-6.35,-7.43,-7.53,0,*5F
1486260151.51,26391,9.63,72208.8,-6.35,-7.43,-7.43,0,*5F
1486260152.7,26392,9.56,72208.8,-6.35,-7.53,-7.53,0,*5C
1486260153.95,26393,9.56,72210.8,-6.35,-7.65,-7.65,0,*5D
1486260155.22,26394,9.63,72208.8,-6.37,-7.61,-7.61,0,*58
1486260156.47,26395,9.56,72210.3,-6.37,-7.43,-7.49,0,*53
1486260157.69,26396,9.56,72210.3,-6.35,-7.43,-7.53,0,*59
1486260158.88,26397,9.56,72212.0,-6.35,-7.53,-7.53,0,*59
1486260160.15,26398,9.63,72216.3,-6.37,-7.57,-7.57,0,*54
1486260161.39,26399,9.63,72216.8,-6.37,-7.49,-7.57,0,*5A
1486260162.64,26400,9.63,72216.0,-6.37,-7.57,-7.49,0,*5D
1486260163.85,26401,9.63,72220.3,-6.37,-7.49,-7.49,0,*53
1486260165.1,26402,9.56,72218.3,-6.35,-7.39,-7.43,0,*5F
1486260166.35,26403,9.56,72216.0,-6.35,-7.35,-7.43,0,*52
1486260167.62,26404,9.56,72216.8,-6.37,-7.43,-7.35,0,*57
1486260168.88,26405,9.56,72216.5,-6.37,-7.43,-7.35,0,*56
1486260170.13,26406,9.63,72216.8,-6.35,-7.31,-7.31,0,*56
1486260171.33,26407,9.63,72216.3,-6.35,-7.19,-7.19,0,*57
1486260172.58,26408,9.56,72218.5,-6.35,-7.31,-7.39,0,*50
1486260173.82,26409,9.63,72218.5,-6.35,-7.39,-7.31,0,*51
1486260175.06,26410,9.63,72218.0,-6.35,-7.31,-7.39,0,*59
1486260176.31,26411,9.63,72218.0,-6.35,-7.31,-7.31,0,*50
1486260177.55,26412,9.56,72214.8,-6.35,-7.39,-7.31,0,*5B
1486260178.79,26413,9.63,72216.3,-6.35,-7.39,-7.31,0,*5A
1486260180.03,26414,9.63,72218.0,-6.35,-7.39,-7.39,0,*55
1486260181.27,26415,9.63,72218.5,-6.35,-7.31,-7.31,0,*54
1486260182.52,26416,9.56,72218.0,-6.35,-7.31,-7.39,0,*5F
1486260183.76,26417,9.63,72216.5,-6.35,-7.31,-7.39,0,*5E
1486260185.03,26418,9.63,72214.5,-6.37,-7.43,-7.39,0,*56
1486260186.28,26419,9.63,72216.8,-6.35,-7.31,-7.31,0,*58
1486260187.52,26420,9.56,72214.5,-6.35,-7.43,-7.39,0,*5F
1486260188.77,26421,9.63,72218.3,-6.35,-7.31,-7.39,0,*5B
1486260190.04,26422,9.63,72216.3,-6.33,-7.31,-7.31,0,*56
1486260191.3,26423,9.63,72224.8,-6.33,-7.39,-7.31,0,*5F
1486260192.57,26424,9.63,72222.3,-6.33,-7.31,-7.39,0,*58
1486260193.83,26425,9.63,72220.5,-6.33,-7.39,-7.39,0,*51
1486260195.1,26426,9.56,72218.0,-6.33,-7.31,-7.31,0,*52
1486260196.34,26427,9.56,72216.3,-6.35,-7.31,-7.31,0,*55
1486260197.59,26428,9.63,72222.5,-6.35,-7.31,-7.27,0,*5D
1486260198.86,26429,9.63,72218.3,-6.33,-7.31,-7.27,0,*5A
1486260200.13,26430,9.63,72222.3,-6.33,-7.31,-7.27,0,*52
1486260201.4,26431,9.63,72220.5,-6.33,-7.27,-7.27,0,*54
1486260202.66,26432,9.63,72220.3,-6.33,-7.27,-7.27,0,*57
1486260203.93,26433,9.63,72226.0,-6.33,-7.31,-7.27,0,*51
1486260205.2,26434,9.63,72222.8,-6.33,-7.31,-7.27,0,*56
1486260206.44,26435,9.63,72222.3,-6.31,-7.35,-7.27,0,*51
1486260207.71,26436,9.56,72218.5,-6.33,-7.31,-7.39,0,*5B
1486260208.98,26437,9.63,72220.5,-6.33,-7.27,-7.31,0,*55
1486260210.25,26438,9.63,72220.5,-6.33,-7.27,-7.27,0,*5D
1486260211.52,26439,9.63,72218.3,-6.33,-7.27,-7.31,0,*5B
1486260212.76,26440,9.63,72222.0,-6.31,-7.31,-7.27,0,*57
1486260214.03,26441,9.63,72222.0,-6.33,-7.27,-7.31,0,*54
1486260215.3,26442,9.63,72222.5,-6.33,-7.31,-7.31,0,*50
1486260216.56,26443,9.63,72222.0,-6.33,-7.39,-7.39,0,*51
1486260217.83,26444,9.63,72216.3,-6.33,-7.39,-7.43,0,*5B
1486260219.08,26445,9.63,72216.5,-6.31,-7.43,-7.43,0,*55
1486260220.32,26446,9.63,72222.0,-6.33,-7.53,-7.57,0,*50
1486260221.57,26447,9.63,72220.0,-6.31,-7.27,-7.35,0,*54
1486260222.83,26448,9.63,72220.8,-6.33,-7.27,-7.27,0,*5A
1486260224.1,26449,9.56,72220.5,-6.33,-7.31,-7.31,0,*5B
1486260225.37,26450,9.63,72220.8,-6.33,-7.31,-7.31,0,*53
1486260226.64,26451,9.63,72224.3,-6.33,-7.27,-7.27,0,*52
1486260227.88,26452,9.63,72222.8,-6.31,-7.27,-7.35,0,*50
1486260229.15,26453,9.63,72220.8,-6.33,-7.31,-7.39,0,*58
1486260230.41,26454,9.56,72222.0,-6.33,-7.39,-7.31,0,*5F
1486260231.68,26455,9.63,72218.8,-6.33,-7.31,-7.31,0,*56
1486260232.94,26456,9.63,72220.5,-6.33,-7.39,-7.39,0,*55
1486260234.21,26457,9.56,72216.3,-6.33,-7.31,-7.39,0,*5C
1486260235.48,26458,9.63,72222.0,-6.33,-7.31,-7.39,0,*53
1486260236.75,26459,9.63,72218.3,-6.33,-7.27,-7.31,0,*5D
1486260237.99,26460,9.63,72220.5,-6.35,-7.39,-7.31,0,*5E
1486260239.26,26461,9.63,72222.0,-6.33,-7.31,-7.31,0,*51
1486260240.52,26462,9.63,72220.5,-6.33,-7.39,-7.31,0,*5A
1486260241.79,26463,9.63,72220.5,-6.33,-7.39,-7.43,0,*5E
1486260243.06,26464,9.63,72224.0,-6.33,-7.43,-7.43,0,*54
1486260244.28,26465,9.63,72222.5,-6.33,-7.53,-7.53,0,*55
1486260245.52,26466,9.63,72220.8,-6.33,-7.53,-7.57,0,*52
1486260246.8,26467,9.63,72214.3,-6.33,-7.57,-7.57,0,*57
1486260248.04,26468,9.63,72216.5,-6.33,-7.43,-7.53,0,*59
1486260249.26,26469,9.63,72214.0,-6.33,-7.53,-7.53,0,*59
1486260250.47,26470,9.63,72214.8,-6.33,-7.53,-7.53,0,*51
1486260251.72,26471,9.63,72218.0,-6.35,-7.43,-7.43,0,*56
1486260252.97,26472,9.63,72218.0,-6.35,-7.39,-7.31,0,*5D
1486260254.23,26473,9.63,72218.5,-6.33,-7.31,-7.31,0,*52
1486260255.5,26474,9.63,72216.8,-6.33,-7.39,-7.31,0,*5D
1486260256.75,26475,9.63,72216.3,-6.33,-7.53,-7.43,0,*55
1486260258.02,26476,9.63,72216.5,-6.33,-7.39,-7.43,0,*5A
1486260259.23,26477,9.63,72216.0,-6.31,-7.49,-7.27,0,*5C
1486260260.5,26478,9.63,72216.3,-6.33,-7.43,-7.39,0,*54
1486260261.72,26479,9.63,72214.5,-6.31,-7.49,-7.43,0,*50
1486260262.94,26480,9.63,72216.8,-6.33,-7.53,-7.53,0,*5E
1486260264.18,26481,9.63,72218.8,-6.33,-7.53,-7.43,0,*5E
1486260265.4,26482,9.63,72212.3,-6.33,-7.53,-7.53,0,*5C
1486260266.65,26483,9.63,72212.0,-6.33,-7.53,-7.57,0,*59
1486260267.86,26484,9.63,72216.3,-6.33,-7.53,-7.53,0,*5A
1486260269.11,26485,9.63,72214.5,-6.35,-7.43,-7.43,0,*5D
1486260270.33,26486,9.63,72216.5,-6.33,-7.53,-7.53,0,*58
1486260271.6,26487,9.63,72216.5,-6.33,-7.43,-7.39,0,*54
1486260272.81,26488,9.56,72212.3,-6.31,-7.49,-7.39,0,*53
1486260274.03,26489,9.63,72216.3,-6.35,-7.43,-7.53,0,*50
1486260275.28,26490,9.63,72216.3,-6.35,-7.43,-7.43,0,*59
1486260276.48,26491,9.63,72218.3,-6.35,-7.53,-7.53,0,*58
1486260277.7,26492,9.63,72216.3,-6.35,-7.57,-7.53,0,*5F
1486260278.95,26493,9.63,72218.3,-6.35,-7.57,-7.57,0,*5A
1486260280.14,26494,9.63,72218.8,-6.35,-7.53,-7.53,0,*5D
1486260281.37,26495,9.63,72218.0,-6.35,-7.57,-7.53,0,*58
1486260282.58,26496,9.63,72222.8,-6.35,-7.43,-7.53,0,*5E
1486260283.84,26497,9.63,72216.5,-6.35,-7.57,-7.57,0,*5E
1486260285.03,26498,9.63,72218.0,-6.35,-7.53,-7.53,0,*51
1486260286.28,26499,9.63,72218.5,-6.35,-7.43,-7.43,0,*50
1486260287.53,26500,9.63,72216.3,-6.35,-7.39,-7.43,0,*5C
1486260288.8,26501,9.63,72218.5,-6.37,-7.43,-7.43,0,*52
1486260290.07,26502,9.63,72220.3,-6.37,-7.35,-7.31,0,*55
1486260291.31,26503,9.63,72222.0,-6.35,-7.31,-7.39,0,*5A
1486260292.55,26504,9.63,72218.5,-6.35,-7.39,-7.31,0,*5D
1486260293.8,26505,9.63,72220.8,-6.35,-7.31,-7.31,0,*54
1486260295.04,26506,9.63,72216.8,-6.35,-7.31,-7.31,0,*57
1486260296.29,26507,9.63,72216.0,-6.35,-7.39,-7.43,0,*5B
1486260297.53,26508,9.63,72218.8,-6.37,-7.49,-7.43,0,*51
1486260298.75,26509,9.63,72218.0,-6.35,-7.43,-7.53,0,*59
1486260300.0,26510,9.63,72216.0,-6.35,-7.43,-7.39,0,*5D
1486260301.24,26511,9.63,72218.8,-6.37,-7.49,-7.43,0,*59
1486260302.49,26512,9.63,72216.3,-6.35,-7.43,-7.43,0,*52
1486260303.72,26513,9.63,72216.5,-6.35,-7.53,-7.43,0,*52
1486260304.99,26514,9.63,72218.8,-6.37,-7.35,-7.43,0,*57
1486260306.23,26515,9.63,72216.3,-6.35,-7.39,-7.39,0,*55
1486260307.48,26516,9.63,72216.5,-6.35,-7.43,-7.39,0,*5B
1486260308.72,26517,9.63,72216.3,-6.35,-7.31,-7.31,0,*57
1486260309.96,26518,9.63,72218.8,-6.35,-7.39,-7.39,0,*58
1486260311.21,26519,9.63,72216.3,-6.35,-7.39,-7.39,0,*59
1486260312.48,26520,9.63,72216.0,-6.37,-7.35,-7.43,0,*50
1486260313.73,26521,9.56,72214.5,-6.35,-7.43,-7.39,0,*5F
1486260314.98,26522,9.63,72214.5,-6.35,-7.43,-7.43,0,*51
1486260316.22,26523,9.63,72212.8,-6.35,-7.31,-7.31,0,*50
1486260317.47,26524,9.63,72212.8,-6.35,-7.35,-7.27,0,*54
1486260318.72,26525,9.63,72212.8,-6.35,-7.27,-7.27,0,*56
1486260319.96,26526,9.63,72214.8,-6.33,-7.27,-7.19,0,*5E
1486260321.23,26527,9.63,72214.0,-6.37,-7.31,-7.31,0,*56
1486260322.47,26528,9.63,72214.5,-6.35,-7.27,-7.27,0,*5B
1486260323.72,26529,9.63,72212.0,-6.35,-7.31,-7.31,0,*5A
1486260324.98,26530,9.63,72214.5,-6.33,-7.31,-7.39,0,*5C
1486260326.25,26531,9.63,72212.8,-6.33,-7.31,-7.31,0,*55
1486260327.52,26532,9.63,72210.5,-6.33,-7.31,-7.39,0,*5E
1486260328.79,26533,9.63,72212.5,-6.33,-7.31,-7.31,0,*57
1486260330.03,26534,9.63,72214.5,-6.35,-7.27,-7.31,0,*51
1486260331.28,26535,9.63,72212.3,-6.35,-7.27,-7.27,0,*57
1486260332.52,26536,9.63,72212.5,-6.33,-7.27,-7.19,0,*5F
1486260333.72,26537,9.63,72214.0,-6.31,-7.23,-7.23,0,*51
1486260334.97,26538,9.63,72214.0,-6.33,-7.19,-7.27,0,*51
1486260336.24,26539,9.63,72212.0,-6.33,-7.31,-7.27,0,*5A
1486260337.5,26540,9.63,72212.5,-6.33,-7.31,-7.39,0,*5B
1486260338.77,26541,9.56,72212.8,-6.33,-7.31,-7.31,0,*52
1486260340.04,26542,9.63,72216.0,-6.33,-7.27,-7.27,0,*51
1486260341.31,26543,9.56,72214.8,-6.33,-7.27,-7.27,0,*50
1486260342.58,26544,9.63,72218.0,-6.33,-7.27,-7.27,0,*57
1486260343.83,26545,9.63,72216.5,-6.33,-7.19,-7.27,0,*5B
1486260345.1,26546,9.63,72214.3,-6.33,-7.27,-7.27,0,*55
1486260346.35,26547,9.63,72214.3,-6.33,-7.19,-7.27,0,*59
1486260347.62,26548,9.63,72216.3,-6.33,-7.27,-7.27,0,*5B
1486260348.89,26549,9.63,72214.5,-6.33,-7.27,-7.27,0,*5A
1486260350.15,26550,9.63,72212.8,-6.33,-7.31,-7.31,0,*52
1486260351.42,26551,9.63,72212.5,-6.33,-7.31,-7.31,0,*53
1486260352.69,26552,9.63,72214.5,-6.33,-7.43,-7.39,0,*5D
1486260353.93,26553,9.63,72214.0,-6.31,-7.31,-7.27,0,*54
1486260355.2,26554,9.63,72210.5,-6.33,-7.27,-7.31,0,*51
1486260356.47,26555,9.63,72208.3,-6.33,-7.27,-7.27,0,*57
1486260357.74,26556,9.56,72206.8,-6.33,-7.27,-7.27,0,*54
1486260358.99,26557,9.63,72208.3,-6.33,-7.19,-7.27,0,*58
1486260360.26,26558,9.63,72212.8,-6.33,-7.31,-7.31,0,*5A
1486260361.48,26559,9.63,72214.3,-6.31,-7.23,-7.27,0,*5D
1486260362.7,26560,9.63,72216.8,-6.31,-7.23,-7.27,0,*57
1486260363.97,26561,9.63,72218.0,-6.33,-7.31,-7.27,0,*57
1486260365.23,26562,9.63,72222.3,-6.33,-7.39,-7.27,0,*5C
1486260366.48,26563,9.63,72218.8,-6.31,-7.27,-7.35,0,*53
1486260367.74,26564,9.63,72216.3,-6.33,-7.27,-7.27,0,*55
1486260369.01,26565,9.63,72214.3,-6.33,-7.31,-7.31,0,*54
1486260370.25,26566,9.63,72210.8,-6.31,-7.27,-7.27,0,*55
1486260371.52,26567,9.63,72206.5,-6.33,-7.31,-7.27,0,*51
1486260372.79,26568,9.56,72198.5,-6.33,-7.27,-7.27,0,*59
1486260374.06,26569,9.63,72198.0,-6.33,-7.27,-7.27,0,*58
1486260375.3,26570,9.63,72200.0,-6.33,-7.27,-7.19,0,*5D
1486260376.5,26571,9.63,72202.0,-6.31,-7.23,-7.23,0,*53
1486260377.75,26572,9.63,72202.8,-6.31,-7.35,-7.35,0,*50
1486260379.01,26573,9.63,72198.0,-6.33,-7.39,-7.31,0,*5B
1486260380.28,26574,9.63,72202.0,-6.33,-7.39,-7.31,0,*5C
1486260381.52,26575,9.63,72202.5,-6.35,-7.31,-7.39,0,*5B
1486260382.76,26576,9.56,72196.5,-6.31,-7.35,-7.39,0,*58
1486260384.04,26577,9.56,72198.8,-6.33,-7.43,-7.43,0,*57
1486260385.25,26578,9.63,72200.8,-6.33,-7.53,-7.53,0,*58
1486260386.47,26579,9.63,72200.3,-6.31,-7.39,-7.49,0,*5C
1486260387.74,26580,9.63,72202.8,-6.33,-7.43,-7.43,0,*5F
1486260388.99,26581,9.63,72200.8,-6.33,-7.53,-7.43,0,*5F
1486260390.26,26582,9.56,72200.3,-6.33,-7.65,-7.57,0,*5C
1486260391.52,26583,9.56,72196.0,-6.35,-7.57,-7.57,0,*5A
1486260392.77,26584,9.63,72206.5,-6.35,-7.57,-7.57,0,*5D
1486260394.02,26585,9.56,72202.5,-6.35,-7.57,-7.57,0,*5C
1486260395.27,26586,9.63,72206.8,-6.35,-7.39,-7.43,0,*52
1486260396.52,26587,9.63,72210.8,-6.35,-7.43,-7.43,0,*5E
1486260397.75,26588,9.56,72202.5,-6.35,-7.53,-7.43,0,*50
1486260398.94,26589,9.63,72204.3,-6.35,-7.53,-7.53,0,*50
1486260400.13,26590,9.63,72204.5,-6.35,-7.49,-7.49,0,*58
1486260401.32,26591,9.63,72204.8,-6.35,-7.53,-7.53,0,*59
1486260402.57,26592,9.63,72200.0,-6.35,-7.43,-7.43,0,*5A
1486260403.77,26593,9.63,72202.8,-6.35,-7.53,-7.53,0,*5B
1486260404.99,26594,9.63,72204.8,-6.35,-7.53,-7.57,0,*58
1486260406.21,26595,9.56,72204.3,-6.35,-7.43,-7.53,0,*5C
1486260407.43,26596,9.63,72210.5,-6.35,-7.53,-7.43,0,*5F
1486260408.68,26597,9.63,72212.8,-6.35,-7.43,-7.39,0,*52
1486260409.93,26598,9.63,72210.8,-6.35,-7.43,-7.39,0,*5D
1486260411.17,26599,9.63,72210.5,-6.35,-7.43,-7.39,0,*5C
1486260412.42,26600,9.63,72210.5,-6.37,-7.49,-7.57,0,*5F
1486260413.66,26601,9.63,72208.5,-6.35,-7.39,-7.43,0,*5E
1486260414.9,26602,9.63,72210.5,-6.37,-7.43,-7.49,0,*58
1486260416.14,26603,9.56,72208.3,-6.37,-7.49,-7.57,0,*5C
1486260417.42,26604,9.63,72218.0,-6.37,-7.43,-7.43,0,*54
1486260418.66,26605,9.56,72210.8,-6.37,-7.49,-7.43,0,*5F
1486260419.91,26606,9.56,72208.3,-6.35,-7.43,-7.31,0,*51
1486260421.16,26607,9.56,72212.0,-6.35,-7.43,-7.43,0,*55
1486260422.43,26608,9.63,72208.8,-6.37,-7.43,-7.57,0,*5D
1486260423.68,26609,9.56,72204.3,-6.35,-7.43,-7.39,0,*56
1486260424.87,26610,9.63,72206.8,-6.35,-7.53,-7.53,0,*53
1486260426.12,26611,9.63,72208.0,-6.35,-7.43,-7.43,0,*52
1486260427.39,26612,9.63,72210.3,-6.37,-7.43,-7.43,0,*53
1486260428.66,26613,9.56,72210.8,-6.37,-7.43,-7.27,0,*50
1486260429.93,26614,9.63,72216.3,-6.37,-7.35,-7.35,0,*55
1486260431.17,26615,9.56,72216.8,-6.35,-7.39,-7.39,0,*56
1486260432.41,26616,9.56,72212.5,-6.35,-7.39,-7.39,0,*55
1486260433.68,26617,9.63,72212.5,-6.37,-7.43,-7.35,0,*57
1486260434.93,26618,9.56,72208.3,-6.35,-7.31,-7.31,0,*5B
1486260436.15,26619,9.56,72208.5,-6.35,-7.27,-7.19,0,*57
1486260437.37,26620,9.63,72212.8,-6.37,-7.23,-7.19,0,*5B
1486260438.57,26621,9.63,72212.8,-6.35,-7.19,-7.19,0,*51
1486260439.84,26622,9.63,72210.5,-6.37,-7.31,-7.31,0,*50
1486260441.06,26623,9.63,72208.5,-6.35,-7.27,-7.19,0,*5E
1486260442.28,26624,9.63,72208.8,-6.35,-7.27,-7.19,0,*59
1486260443.52,26625,9.63,72210.3,-6.35,-7.31,-7.31,0,*55
1486260444.8,26626,9.56,72210.0,-6.37,-7.43,-7.43,0,*54
1486260446.04,26627,9.63,72212.3,-6.35,-7.39,-7.39,0,*57
1486260447.28,26628,9.56,72210.0,-6.35,-7.31,-7.31,0,*58
1486260448.52,26629,9.63,72210.8,-6.35,-7.39,-7.31,0,*51
1486260449.77,26630,9.56,72206.5,-6.35,-7.27,-7.31,0,*56
1486260451.01,26631,9.63,72212.3,-6.35,-7.31,-7.27,0,*57
1486260452.26,26632,9.63,72212.8,-6.35,-7.31,-7.27,0,*54
1486260453.5,26633,9.63,72214.8,-6.35,-7.31,-7.27,0,*55
1486260454.77,26634,9.56,72208.8,-6.33,-7.27,-7.27,0,*53
1486260456.01,26635,9.56,72204.3,-6.35,-7.39,-7.39,0,*54
1486260457.25,26636,9.63,72206.5,-6.37,-7.49,-7.57,0,*5A
1486260458.5,26637,9.63,72200.3,-6.35,-7.39,-7.43,0,*5B
1486260459.74,26638,9.63,72206.8,-6.35,-7.31,-7.31,0,*59
1486260460.96,26639,9.63,72204.0,-6.35,-7.31,-7.19,0,*52
1486260462.18,26640,9.63,72208.0,-6.35,-7.39,-7.19,0,*54
1486260463.43,26641,9.56,72204.5,-6.35,-7.27,-7.27,0,*57
1486260464.67,26642,9.63,72210.0,-6.35,-7.27,-7.31,0,*53
1486260465.92,26643,9.56,72206.5,-6.35,-7.27,-7.27,0,*55
1486260467.16,26644,9.63,72208.5,-6.33,-7.27,-7.19,0,*59
1486260468.41,26645,9.63,72210.8,-6.33,-7.19,-7.27,0,*58
1486260469.68,26646,9.63,72210.3,-6.33,-7.27,-7.27,0,*56
1486260470.93,26647,9.63,72210.3,-6.35,-7.31,-7.31,0,*51
1486260472.19,26648,9.63,72208.8,-6.33,-7.39,-7.31,0,*50
1486260473.44,26649,9.63,72208.0,-6.35,-7.43,-7.43,0,*5F
1486260474.68,26650,9.63,72208.8,-6.35,-7.39,-7.31,0,*5F
1486260475.93,26651,9.63,72212.0,-6.35,-7.31,-7.31,0,*56
1486260477.17,26652,9.63,72214.0,-6.33,-7.27,-7.19,0,*5E
1486260478.44,26653,9.63,72210.8,-6.33,-7.27,-7.27,0,*52
1486260479.71,26654,9.56,72206.3,-6.33,-7.31,-7.27,0,*52
1486260480.97,26655,9.63,72210.3,-6.33,-7.39,-7.39,0,*54
1486260482.24,26656,9.63,72208.3,-6.33,-7.39,-7.39,0,*57
1486260483.51,26657,9.63,72210.0,-6.33,-7.27,-7.31,0,*51
1486260484.77,26658,9.63,72208.5,-6.33,-7.31,-7.31,0,*59
1486260486.04,26659,9.63,72210.8,-6.33,-7.39,-7.39,0,*58
1486260487.3,26660,9.63,72212.5,-6.33,-7.39,-7.39,0,*52
1486260488.57,26661,9.63,72210.8,-6.33,-7.39,-7.39,0,*53
1486260489.83,26662,9.63,72218.5,-6.33,-7.39,-7.31,0,*58
1486260491.08,26663,9.63,72218.3,-6.35,-7.31,-7.31,0,*57
1486260492.34,26664,9.63,72216.0,-6.33,-7.27,-7.31,0,*51
1486260493.59,26665,9.63,72220.3,-6.33,-7.19,-7.27,0,*5A
1486260494.84,26666,9.63,72216.8,-6.35,-7.31,-7.27,0,*55
1486260496.08,26667,9.63,72214.3,-6.35,-7.31,-7.27,0,*54
1486260497.32,26668,9.63,72214.3,-6.35,-7.39,-7.39,0,*5C
1486260498.57,26669,9.63,72212.8,-6.35,-7.31,-7.31,0,*5D
1486260499.84,26670,9.63,72216.5,-6.33,-7.31,-7.31,0,*53
1486260501.1,26671,9.63,72210.0,-6.33,-7.39,-7.39,0,*52
1486260502.36,26672,9.63,72212.8,-6.33,-7.39,-7.39,0,*51
1486260503.63,26673,9.63,72214.3,-6.33,-7.39,-7.39,0,*50
1486260504.89,26674,9.63,72212.5,-6.33,-7.39,-7.39,0,*57
1486260506.16,26675,9.63,72212.8,-6.33,-7.31,-7.31,0,*56
1486260507.41,26676,9.63,72214.5,-6.33,-7.19,-7.27,0,*58
1486260508.64,26677,9.63,72218.0,-6.33,-7.19,-7.19,0,*54
1486260509.91,26678,9.63,72216.5,-6.33,-7.27,-7.27,0,*5B
1486260511.17,26679,9.63,72214.5,-6.33,-7.31,-7.27,0,*5D
1486260512.4,26680,9.63,72218.3,-6.33,-7.19,-7.19,0,*5C
1486260513.67,26681,9.63,72218.5,-6.33,-7.27,-7.27,0,*5D
1486260514.93,26682,9.63,72218.0,-6.33,-7.39,-7.39,0,*5E
1486260516.18,26683,9.63,72218.0,-6.31,-7.43,-7.43,0,*5D
1486260517.45,26684,9.63,72216.0,-6.33,-7.39,-7.39,0,*58
1486260518.7,26685,9.63,72218.5,-6.33,-7.01,-7.11,0,*58
1486260519.96,26686,9.63,72222.0,-6.33,-7.27,-7.27,0,*5A
1486260521.23,26687,9.63,72220.0,-6.33,-7.27,-7.31,0,*5C
1486260522.5,26688,9.63,72218.0,-6.33,-7.39,-7.43,0,*59
1486260523.72,26689,9.56,72212.3,-6.33,-7.53,-7.53,0,*55
1486260524.93,26690,9.63,72214.3,-6.31,-7.39,-7.49,0,*58